Home   Weather   Passo Fundo   Past weeks

Flag for Brazil Past Weather in Passo Fundo, Rio Grande do Sul, Brazil — Yesterday and Last 2 Weeks

Now
54 °F

Clear.


Feels Like: 54 °F
Forecast: 40 / 67 °F
Wind: 2 mph from West

Location: Porto Alegre Aero-Porto

Current Time: Apr 29, 2017 at 1:10:47 am

Latest Report: Apr 29, 2017 at 12:00 am


Visibility: 10 mi

Pressure: 30.21 "Hg (27.85 "Hg at 680m altitude)

Humidity: 82%

Dew Point: 48 °F

Location of Passo FundoLocation

Past Weather in Passo Fundo — Graph

°F

Passo Fundo Temperature Yesterday

Maximum temperature yesterday: 70 °F (at 2:00 pm)
Minimum temperature yesterday: 48 °F (at 4:00 am)
Average temperature yesterday: 58 °F

High & Low Weather Summary for the Past Weeks

 TemperatureHumidityPressure
High82 °F (Apr 20, 2:00 pm)100% (Apr 14, 5:00 am)30.27 "Hg (Apr 14, 5:00 am)
Low48 °F (Apr 28, 4:00 am)35% (Apr 28, 3:00 pm)29.50 "Hg (Apr 26, 2:00 am)
Average66 °F81%30.00 "Hg
* Reported Apr 14 12:00 am — Apr 29 12:00 am, Passo Fundo, Weather by CustomWeather, © 2017

Note: Actual official high and low records may vary slightly from our data, if they occured in-between our weather recording intervals... More about our weather records

Advertising

Passo Fundo Weather History for the Previous 24 Hours

Scroll right to see more
 ConditionsComfort  
Time TempWeatherWind HumidityBarometerVisibility
12:00 am
Sat, Apr 29
54 °FClear.2 mph82%30.21 "Hg10 mi
11:00 pm
Fri, Apr 28
57 °FPassing clouds.3 mph77%30.21 "HgN/A
10:00 pm57 °FPassing clouds.3 mph77%30.21 "HgN/A
9:00 pm55 °FClear.No wind82%30.21 "Hg10 mi
8:00 pm59 °FClear.2 mph68%30.18 "Hg10 mi
7:00 pm61 °FClear.3 mph63%30.18 "Hg10 mi
6:00 pm66 °FClear.6 mph46%30.18 "Hg10 mi
5:00 pm68 °FSunny.8 mph43%30.18 "Hg10 mi
4:00 pm70 °FSunny.9 mph38%30.18 "Hg10 mi
3:00 pm70 °FSunny.12 mph35%30.18 "Hg10 mi
2:00 pm70 °FSunny.10 mph40%30.21 "Hg10 mi
1:00 pm68 °FPassing clouds.10 mph43%30.21 "HgN/A
12:00 pm64 °FPassing clouds.10 mph52%30.24 "HgN/A
11:00 am63 °FPassing clouds.8 mph64%30.27 "HgN/A
10:00 am57 °FPassing clouds.5 mph72%30.27 "HgN/A
9:00 am54 °FPassing clouds.6 mph82%30.27 "HgN/A
8:00 am52 °FSunny.6 mph88%30.24 "Hg10 mi
7:00 am48 °FClear.5 mph94%30.21 "Hg4 mi
6:00 am48 °FClear.3 mph94%30.21 "Hg10 mi
5:00 am48 °FClear.2 mph94%30.18 "Hg10 mi
4:00 am48 °FClear.2 mph94%30.18 "Hg10 mi
3:00 am50 °FClear.2 mph88%30.18 "Hg10 mi
2:00 am50 °FClear.5 mph94%30.18 "Hg10 mi
1:00 am50 °FClear.2 mph88%30.15 "Hg10 mi
Weather by CustomWeather, © 2017

See weather overviewHow to use our weather pages